BEIDOU-3 M16

Last updated on Wed May 15 2019 03:07:46 GMT+0000 (Coordinated Universal Time)

1 43648U 18078B 19134.85043127 -.00000103 00000-0 10000-3 0 9996 2 43648 55.0922 29.3697 0005764 344.5674 340.9365 1.86232555 3933

Satellite not in orbit

BEIDOU-3 M16